Location: Ferchesar
(52.6477°N, 12.4298°E)
Time: 20:43:41
(UTC+02:00)

Transit 4A - Pass Details

Date: 28 February 2021
Orbit: 868 x 976 km, 66.8° (Epoch: 10 April)

Event Time Altitude Azimuth Distance (km) Brightness Sun altitude
Rises 17:06:51 0° 312° (NW) 3,628 11.4 5.1°
Reaches altitude 10° 17:09:50 10° 324° (NW) 2,664 10.6 4.7°
Maximum altitude 17:15:05 28° 22° (NNE) 1,670 9.0 3.9°
Drops below altitude 10° 17:20:12 10° 80° (E) 2,593 9.6 3.2°
Sets 17:23:04 0° 92° (E) 3,514 10.3 2.8°
